Location: Firdgum
(53.2488°N, 5.5615°E)
Time: 01:29:51
(UTC+00:00)

Cosmos 968 Rocket - Pass Details

Date: 08 December 2019
Orbit: 742 x 770 km, 74.0° (Epoch: 17 January)

Event Time Altitude Azimuth Distance (km) Brightness Sun altitude
Exits shadow 06:40:30 - 336° (NNW) 2,929 6.0 -8.1°
Reaches altitude 10° 06:42:10 10° 339° (NNW) 2,293 5.5 -7.9°
Maximum altitude 06:47:18 58° 59° (ENE) 873 4.0 -7.2°
Drops below altitude 10° 06:52:21 10° 139° (SE) 2,261 7.4 -6.5°
Sets 06:54:44 0° 143° (SE) 3,178 8.2 -6.2°
